Preview of NWS' New Version of Forecast
This preview is not operational and should not be used for support decisions.

Regional Weather Roundup (RWR)

Issued by National Weather Service (NWS)

                            
000
ASUS45 KCYS 231510
RWRWY 

WYOMING REGIONAL WEATHER ROUNDUP
NATIONAL WEATHER SERVICE CHEYENNE WY
900 AM MDT SUN JUN 23 2019

NOTE:  "FAIR" INDICATES FEW OR NO CLOUDS BELOW 12,000 FEET
WITH NO SIGNIFICANT WEATHER AND/OR OBSTRUCTIONS TO VISIBILITY.

WYZ001-231600-
YELLOWSTONE NATIONAL PARK
  
CITY           SKY/WX    TMP DP  RH WIND       PRES   REMARKS
LK YELLOWSTONE   N/A     41  35  79 E5        30.19F                  
W YELLOWSTONE  NOT AVBL                                               

$$
WYZ002>013-054>058-071-098>099-231600-
NORTHERN WYOMING
  
CITY           SKY/WX    TMP DP  RH WIND       PRES   REMARKS
JACKSON        FAIR      48  36  63 VRB3      30.16F                  
CODY           FAIR      61  36  39 W12G17    30.03F                  
GREYBULL       FAIR      57  39  51 SE6       30.02S                  
WORLAND        FAIR      60  38  43 VRB6      30.03S                  
SHERIDAN       FAIR      64  42  44 E5        29.99F                  
BUFFALO        FAIR      59  39  47 S7        30.04S                  
GILLETTE       FAIR      59  47  64 W13       30.01S                  
HULETT         FAIR      59  43  55 SW8       30.02                   
NEWCASTLE      FAIR      55  45  67 S8        30.04                   

$$
WYZ014>020-022>026-101>103-231600-
CENTRAL WYOMING
  
CITY           SKY/WX    TMP DP  RH WIND       PRES   REMARKS
BIG PINEY      FAIR      49  37  63 SW5       30.17F                  
PINEDALE       FAIR      50  34  53 NW9       30.17                   
DUBOIS         FAIR      52  32  46 N8        30.12                   
LANDER         FAIR      56  40  55 E5        30.09R                  
RIVERTON       FAIR      54  39  57 S6        30.09S                  
CASPER         FAIR      49  44  83 SW8       30.09S                  
DOUGLAS        CLOUDY    49  44  83 W6        30.09R                  

$$
WYZ021-027>030-104>119-231600-
SOUTHERN WYOMING
  
CITY           SKY/WX    TMP DP  RH WIND       PRES   REMARKS
EVANSTON       FAIR      46  32  58 SW10      30.22R                  
KEMMERER       FAIR      50  32  50 W6        30.21                   
ROCK SPRINGS   FAIR      51  34  52 NW10      30.17S                  
DIXON          CLOUDY    42  38  87 E10       30.22R                  
RAWLINS        PTSUNNY   47  39  74 W10       30.15S                  
SARATOGA       CLOUDY    43  43 100 NW7       30.16S                  
LARAMIE        LGT SNOW  33  32  96 W9        30.10S FOG     WCI  25  
CHEYENNE       FAIR      48  37  65 NW16      30.07S                  
TORRINGTON     PTSUNNY   50  46  86 W12G21    30.01F                  
PINE BLUFFS    FAIR      50  41  71 NW15      30.04R                  

$$
  

000
ASUS45 KCYS 231510
RWRWY 

WYOMING REGIONAL WEATHER ROUNDUP
NATIONAL WEATHER SERVICE CHEYENNE WY
900 AM MDT SUN JUN 23 2019

NOTE:  "FAIR" INDICATES FEW OR NO CLOUDS BELOW 12,000 FEET
WITH NO SIGNIFICANT WEATHER AND/OR OBSTRUCTIONS TO VISIBILITY.

WYZ001-231600-
...YELLOWSTONE NATIONAL PARK...
  
CITY           SKY/WX    TMP DP  RH WIND       PRES   REMARKS
LK YELLOWSTONE   N/A     41  35  79 E5        30.19F                  
W YELLOWSTONE  NOT AVBL                                               

$$
WYZ002>013-054>058-071-098>099-231600-
...NORTHERN WYOMING...
  
CITY           SKY/WX    TMP DP  RH WIND       PRES   REMARKS
JACKSON        MOSUNNY   48  36  63 VRB3      30.16F                  
CODY           MOSUNNY   61  36  39 W12G17    30.03F                  
GREYBULL       SUNNY     57  39  51 SE6       30.02S                  
WORLAND        SUNNY     60  38  43 VRB6      30.03S                  
SHERIDAN       MOSUNNY   64  42  44 E5        29.99F                  
BUFFALO        SUNNY     59  39  47 S7        30.04S                  
GILLETTE       SUNNY     59  47  64 W13       30.01S                  
HULETT         FAIR      59  43  55 SW8       30.02S                  
NEWCASTLE      FAIR      55  45  67 S8        30.04S                  

$$
WYZ014>020-022>026-101>103-231600-
...CENTRAL WYOMING...
  
CITY           SKY/WX    TMP DP  RH WIND       PRES   REMARKS
BIG PINEY      SUNNY     49  37  63 SW5       30.17F                  
PINEDALE       SUNNY     50  34  53 NW9       30.17F                  
DUBOIS         FAIR      52  32  46 N8        30.12F                  
LANDER         SUNNY     56  40  55 E5        30.09R                  
RIVERTON       SUNNY     54  39  57 S6        30.09S                  
CASPER         MOSUNNY   49  44  83 SW8       30.09S                  
DOUGLAS        CLOUDY    49  44  83 W6        30.09R                  

$$
WYZ021-027>030-104>119-231600-
...SOUTHERN WYOMING...
  
CITY           SKY/WX    TMP DP  RH WIND       PRES   REMARKS
EVANSTON       SUNNY     46  32  58 SW10      30.22R                  
KEMMERER       SUNNY     50  30  46 W8        30.21S                  
FORT BRIDGER   NOT AVBL                                               
ROCK SPRINGS   MOSUNNY   51  34  52 NW10      30.17S                  
DIXON          CLOUDY    42  38  87 E10       30.22R                  
RAWLINS        PTSUNNY   47  39  74 W10       30.15S                  
SARATOGA       CLOUDY    43  43 100 NW7       30.16S                  
LARAMIE        LGT SNOW  33  32  96 W9        30.10S FOG     WCI  25  
CHEYENNE       MOSUNNY   48  37  65 NW16      30.07S                  
TORRINGTON     CLOUDY    50  46  86 W12G21    30.01F                  
PINE BLUFFS    FAIR      50  41  71 NW15      30.04R                  

$$